Weather reports worldwide

Advertisment
Coningsby, United Kingdom (3391): temperature & dewpoint: 10.12.2019 02:00:00 - 16.12.2019 02:00:00 (GMT)Coningsby, United Kingdom (3391): temperature -20cm & temperature -100cm: 10.12.2019 02:00:00 - 16.12.2019 02:00:00 (GMT)Coningsby, United Kingdom (3391): wind speed & gusts: 10.12.2019 02:00:00 - 16.12.2019 02:00:00 (GMT)Coningsby, United Kingdom (3391): wind direction: 10.12.2019 02:00:00 - 16.12.2019 02:00:00 (GMT)Coningsby, United Kingdom (3391): reduced air pressure: 10.12.2019 02:00:00 - 16.12.2019 02:00:00 (GMT)Coningsby, United Kingdom (3391): visibility: 10.12.2019 02:00:00 - 16.12.2019 02:00:00 (GMT)Coningsby, United Kingdom (3391): precipitation: 10.12.2019 02:00:00 - 16.12.2019 02:00:00 (GMT)
Date & Time tt [°C] td [°C] tt -20cm [°C] tt -100cm [°C] ff [km/h] ff [kn] fx [km/h] fx [kn] dd ppp [hPa] vv [km] rr [mm]
16.12.2019 02:00:00 - - - - - - - - - - - -
16.12.2019 01:00:00 4,6 3,2 - - 21 11 - - S 995,8 10 0,0
16.12.2019 00:00:00 5,6 3,8 - - 26 14 - - S 995,7 10 0,0
15.12.2019 23:00:00 5,7 3,8 - - 24 13 - - SSW 995,8 10 0,0
15.12.2019 22:00:00 5,1 3,2 - - 18 10 - - S 995,7 10 0,0
15.12.2019 21:00:00 4,3 2,7 - - 16 9 - - S 995,7 10 0,0
15.12.2019 20:00:00 4,3 2,8 - - 15 8 - - S 996,0 10 0,0
15.12.2019 19:00:00 3,0 1,2 - - 4 2 - - SSW 996,1 10 0,0
15.12.2019 18:00:00 4,7 3,2 - - 9 5 - - SSW 996,3 10 0,0
15.12.2019 17:00:00 5,7 3,4 - - 15 8 - - SSW 995,8 10 0,0
15.12.2019 16:00:00 5,5 2,7 - - 13 7 - - SSW 995,1 10 0,0
15.12.2019 15:00:00 6,6 2,8 - - 15 8 - - SW 994,7 10 0,0
15.12.2019 14:00:00 6,9 2,7 - - 21 11 - - SW 994,1 10 0,0
15.12.2019 13:00:00 7,7 3,2 - - 21 11 - - SW 993,1 10 0,0
15.12.2019 12:00:00 6,9 2,0 - - 29 16 - - WSW 992,7 10 0,0
15.12.2019 11:00:00 6,2 2,1 - - 26 14 - - WSW 992,0 10 0,0
15.12.2019 10:00:00 5,4 1,7 - - 34 18 46 25 SW 990,8 40 0,0
15.12.2019 09:00:00 4,1 1,0 4,7 8,2 28 15 - - WSW 989,7 10 0,0
15.12.2019 08:00:00 3,8 0,4 - - 29 16 46 25 WSW 988,1 10 0,0
15.12.2019 07:00:00 3,5 0,2 - - 24 13 - - WSW 987,2 10 0,0
15.12.2019 06:00:00 3,6 0,4 - - 28 15 50 27 WSW 986,0 10 0,0
15.12.2019 05:00:00 3,8 0,7 - - 34 18 59 32 WSW 984,8 10 0,0
15.12.2019 04:00:00 4,6 1,7 - - 29 16 52 28 WSW 983,1 10 0,0
15.12.2019 03:00:00 5,8 3,2 - - 28 15 - - SW 982,6 10 0,0
15.12.2019 02:00:00 6,0 4,2 - - 21 11 - - SW 982,4 10 0,4
15.12.2019 01:00:00 5,7 4,9 - - 22 12 - - SSW 983,1 10 0,2
15.12.2019 00:00:00 5,1 4,3 - - 24 13 - - S 983,8 10 0,0
14.12.2019 23:00:00 4,5 3,3 - - 21 11 - - S 984,2 10 0,0
14.12.2019 22:00:00 3,9 2,7 - - 15 8 - - S 986,1 10 1,6
14.12.2019 21:00:00 4,3 2,1 - - 15 8 - - SSW 987,6 10 0,0
14.12.2019 20:00:00 4,2 0,6 - - 22 12 - - SSW 989,1 10 0,0
14.12.2019 19:00:00 3,7 0,2 - - 15 8 - - SSW 989,9 10 0,0
14.12.2019 18:00:00 3,8 0,2 - - 24 13 - - SW 989,5 10 0,0
14.12.2019 17:00:00 3,7 -0,7 - - 21 11 - - WSW 989,6 30 0,0
14.12.2019 16:00:00 4,5 -0,6 - - 26 14 48 26 W 989,0 10 0,0
14.12.2019 15:00:00 5,3 0,0 - - 37 20 61 33 WSW 988,2 10 0,0
14.12.2019 14:00:00 6,2 0,9 - - 41 22 61 33 W 987,2 10 0,0
14.12.2019 13:00:00 5,9 2,9 - - 28 15 57 31 W 986,2 10 0,0
14.12.2019 12:00:00 6,4 2,4 - - 26 14 - - SW 985,5 10 0,0
14.12.2019 11:00:00 5,4 1,7 - - 26 14 - - SW 985,3 10 0,0
14.12.2019 10:00:00 4,5 1,2 - - 24 13 - - WSW 984,8 10 0,0
14.12.2019 09:00:00 4,0 0,6 4,9 8,2 26 14 48 26 WSW 984,2 10 0,0
14.12.2019 08:00:00 3,9 0,6 - - 34 18 46 25 WSW 983,4 10 0,0
14.12.2019 07:00:00 3,6 0,7 - - 24 13 - - WSW 982,8 10 0,0
14.12.2019 06:00:00 4,1 1,3 - - 29 16 - - WSW 981,9 10 0,0
14.12.2019 05:00:00 4,1 2,2 - - 21 11 - - WSW 981,2 10 0,2
14.12.2019 04:00:00 4,0 2,2 - - 13 7 - - WNW 980,9 10 0,0
14.12.2019 03:00:00 3,8 1,9 - - 21 11 - - W 980,1 10 0,0
14.12.2019 02:00:00 3,5 1,6 - - 22 12 - - WSW 979,4 10 0,0
14.12.2019 01:00:00 3,8 1,4 - - 16 9 - - WSW 978,8 10 0,0
14.12.2019 00:00:00 5,0 2,5 - - 15 8 - - WSW 978,6 10 0,0
13.12.2019 23:00:00 5,5 2,5 - - 16 9 - - WSW 978,6 10 0,0
13.12.2019 22:00:00 5,3 2,2 - - 22 12 - - WSW 978,4 10 0,0
13.12.2019 21:00:00 5,0 1,8 - - 16 9 - - WSW 978,7 10 0,0
13.12.2019 20:00:00 5,6 2,4 - - 24 13 46 25 WSW 978,9 10 0,0
13.12.2019 19:00:00 6,2 3,1 - - 34 18 52 28 WSW 979,3 30 0,0
13.12.2019 18:00:00 6,4 3,4 - - 31 17 52 28 WSW 979,0 10 0,0
13.12.2019 17:00:00 6,9 3,8 - - 31 17 52 28 WSW 979,1 10 0,0
13.12.2019 16:00:00 7,1 3,9 - - 34 18 50 27 WSW 978,7 10 0,0
13.12.2019 15:00:00 7,3 4,1 - - 31 17 48 26 WSW 978,4 10 0,0
13.12.2019 14:00:00 7,6 4,5 - - 31 17 46 25 WSW 977,9 10 0,0
13.12.2019 13:00:00 7,1 4,6 - - 28 15 - - WSW 978,0 30 0,0
13.12.2019 12:00:00 6,9 4,8 - - 28 15 - - W 977,0 10 0,0
13.12.2019 11:00:00 6,6 4,9 - - 22 12 - - W 976,6 10 0,0
13.12.2019 10:00:00 5,9 4,9 - - 22 12 - - WSW 976,2 10 0,0
13.12.2019 09:00:00 4,8 4,1 4,9 8,2 21 11 - - WSW 975,1 10 0,0
13.12.2019 08:00:00 3,5 2,8 - - 13 7 - - WSW 974,0 30 0,0
13.12.2019 07:00:00 4,2 2,9 - - 15 8 - - W 972,8 10 0,0
13.12.2019 06:00:00 5,0 3,9 - - 13 7 - - W 971,7 10 0,0
13.12.2019 05:00:00 5,4 4,8 - - 13 7 - - W 970,8 10 0,0
13.12.2019 04:00:00 4,9 4,9 - - 13 7 - - W 970,1 7 0,0
13.12.2019 03:00:00 2,9 2,4 - - 2 1 - - SW 969,9 4,0 0,0
13.12.2019 02:00:00 4,2 3,6 - - 9 5 - - SW 969,3 10 0,0
13.12.2019 01:00:00 5,5 4,9 - - 8 4 - - SW 969,7 10 0,0
13.12.2019 00:00:00 6,4 6,0 - - 13 7 - - SW 970,3 10 0,0
12.12.2019 23:00:00 5,9 5,4 - - 15 8 - - SW 971,0 10 0,0
12.12.2019 22:00:00 5,5 4,8 - - 13 7 - - SW 971,6 10 0,0
12.12.2019 21:00:00 6,8 6,2 - - 11 6 - - SW 972,7 10 0,0
12.12.2019 20:00:00 7,3 6,9 - - 18 10 - - SW 973,6 10 0,4
12.12.2019 19:00:00 7,4 7,1 - - 24 13 - - S 974,4 8 0,4
12.12.2019 18:00:00 7,6 6,9 - - 24 13 - - S 975,6 10 0,4
12.12.2019 17:00:00 7,3 7,0 - - 22 12 - - S 977,0 7 1,8
12.12.2019 16:00:00 6,8 6,5 - - 24 13 - - SSE 978,8 7 1,0
12.12.2019 15:00:00 6,4 5,9 - - 28 15 - - S 980,5 10 0,6
12.12.2019 14:00:00 5,8 5,2 - - 24 13 - - SSE 982,4 10 0,2
12.12.2019 13:00:00 4,7 4,3 - - 26 14 - - SSE 984,5 7 1,6
12.12.2019 12:00:00 4,2 3,5 - - 26 14 - - SSE 987,1 20 0,2
12.12.2019 11:00:00 3,4 2,5 - - 24 13 - - SSE 989,7 10 0,0
12.12.2019 10:00:00 2,2 1,3 - - 16 9 - - SSE 991,7 10 0,2
12.12.2019 09:00:00 1,4 0,7 4,7 8,5 15 8 - - S 993,1 10 0,0
12.12.2019 08:00:00 1,1 0,4 - - 15 8 - - S 994,5 10 0,0
12.12.2019 07:00:00 0,9 0,3 - - 15 8 - - S 995,7 10 0,0
12.12.2019 06:00:00 0,4 -0,2 - - 16 9 - - S 996,5 30 0,0
12.12.2019 05:00:00 0,2 -0,3 - - 11 6 - - S 997,5 10 0,0
12.12.2019 04:00:00 -0,3 -0,9 - - 11 6 - - SSW 998,5 10 0,0
12.12.2019 03:00:00 -0,2 -0,6 - - 13 7 - - SSW 999,1 10 0,0
12.12.2019 02:00:00 -0,4 -0,8 - - 13 7 - - SSW 999,9 11 0,0
12.12.2019 01:00:00 -0,3 -1,1 - - 11 6 - - SW 1000,1 10 0,0
12.12.2019 00:00:00 1,1 0,3 - - 11 6 - - WSW 1000,4 10 0,0
11.12.2019 23:00:00 1,0 0,5 - - 13 7 - - W 1000,5 10 0,0
11.12.2019 22:00:00 1,2 0,8 - - 13 7 - - WSW 1000,5 10 0,0
11.12.2019 21:00:00 1,7 1,4 - - 15 8 - - WSW 1000,4 10 0,0
11.12.2019 20:00:00 2,3 1,7 - - 11 6 - - W 1000,3 10 0,0
11.12.2019 19:00:00 2,6 2,2 - - 13 7 - - W 1000,0 10 0,0
11.12.2019 18:00:00 3,8 2,9 - - 15 8 - - WSW 999,5 10 0,4
11.12.2019 17:00:00 5,2 3,8 - - 21 11 - - SW 999,1 10 0,6
11.12.2019 16:00:00 5,6 4,1 - - 11 6 - - SSW 999,0 10 0,4
11.12.2019 15:00:00 6,1 3,9 - - 16 9 - - SSW 999,3 10 0,0
11.12.2019 14:00:00 5,8 4,1 - - 16 9 - - SSW 999,6 25 0,0
11.12.2019 13:00:00 6,4 4,1 - - 15 8 - - S 1000,4 10 0,0
11.12.2019 12:00:00 5,4 3,7 - - 21 11 - - S 1001,2 10 0,0
11.12.2019 11:00:00 4,3 3,1 - - 21 11 - - S 1002,3 10 0,0
11.12.2019 10:00:00 3,2 2,0 - - 21 11 - - SSW 1002,9 10 0,0
11.12.2019 09:00:00 2,6 1,4 5,2 8,7 16 9 - - S 1003,4 10 0,0
11.12.2019 08:00:00 2,1 1,2 - - 16 9 - - S 1003,9 10 0,0
11.12.2019 07:00:00 2,1 1,0 - - 15 8 - - S 1004,3 10 0,0
11.12.2019 06:00:00 2,5 1,1 - - 16 9 - - SW 1004,2 10 0,0
11.12.2019 05:00:00 3,3 1,8 - - 22 12 - - SW 1004,7 10 0,0
11.12.2019 04:00:00 3,6 2,1 - - 18 10 - - SW 1005,1 10 0,0
11.12.2019 03:00:00 3,3 1,6 - - 15 8 - - SSW 1005,5 30 0,0
11.12.2019 02:00:00 3,8 1,9 - - 16 9 - - WSW 1005,2 30 0,0
11.12.2019 01:00:00 5,2 2,7 - - 21 11 - - WSW 1004,5 10 0,0
11.12.2019 00:00:00 5,2 3,5 - - 16 9 - - WSW 1004,0 10 0,0
10.12.2019 23:00:00 5,9 3,7 - - 22 12 - - WSW 1003,3 10 0,0
10.12.2019 22:00:00 6,9 4,7 - - 21 11 57 31 W 1002,3 10 0,0
10.12.2019 21:00:00 8,5 6,5 - - 24 13 - - W 1000,5 10 0,0
10.12.2019 20:00:00 8,6 7,3 - - 24 13 65 35 W 999,4 30 3,0
10.12.2019 19:00:00 11,3 10,1 - - 42 23 72 39 SSW 996,7 10 0,0
10.12.2019 18:00:00 11,3 9,5 - - 46 25 76 41 SSW 997,5 40 0,0
10.12.2019 17:00:00 11,1 9,1 - - 50 27 70 38 SSW 998,3 10 0,0
10.12.2019 16:00:00 10,6 8,6 - - 46 25 70 38 SSW 999,9 10 0,0
10.12.2019 15:00:00 10,0 8,2 - - 44 24 65 35 SSW 1001,4 10 0,0
10.12.2019 14:00:00 9,6 7,9 - - 39 21 63 34 S 1003,5 10 0,0
10.12.2019 13:00:00 8,8 7,5 - - 39 21 59 32 S 1005,3 20 0,4
10.12.2019 12:00:00 7,7 6,8 - - 35 19 54 29 S 1007,6 8 0,8
10.12.2019 11:00:00 6,7 5,7 - - 29 16 48 26 S 1009,5 10 0,6
10.12.2019 10:00:00 5,6 4,3 - - 28 15 48 26 S 1011,6 15 0,4
10.12.2019 09:00:00 4,2 2,7 5,0 8,7 28 15 48 26 S 1013,3 10 0,0
10.12.2019 08:00:00 3,4 1,7 - - 26 14 - - S 1014,5 25 0,0
10.12.2019 07:00:00 2,3 1,0 - - 16 9 - - S 1016,6 10 0,0
10.12.2019 06:00:00 1,8 0,8 - - 18 10 - - S 1017,4 25 0,0
10.12.2019 05:00:00 1,0 0,3 - - 15 8 - - S 1018,9 10 0,0
10.12.2019 04:00:00 0,6 0,2 - - 13 7 - - S 1020,1 10 0,0
10.12.2019 03:00:00 -0,4 -0,7 - - 11 6 - - S 1021,0 14 0,0
10.12.2019 02:00:00 -1,7 -2,2 - - 8 4 - - S 1021,9 10 0,0

tt = temperature
td = dewpoint
tt -20cm = temperature -20cm
tt -100cm = temperature -100cm
ff = wind speed
fx = gusts
dd = wind direction
ppp = reduced air pressure
vv = visibility
rr = precipitation

Next stations